Milford Sound (NZMF)

Aerodrome — Elev 0
New Zealand
S044.40.33.012 E167.55.19.956
Loading chart...

NOTE: there is a MAJOR bug with the NZMF in the default FSX scenery that results in an 850ft high airport-shaped plateau that shoots up from the floor of the sound. If you are using FSX you need to install this scenery update to fix the problem. FS2004 is not afflicted with this issue.

Current Weather

NZMF 250300Z 32007KT 250V060 7000 RA FEW025 SCT035 OVC045 14/10 Q1017 RMK VATSIM

Published 45 minutes ago

Airport Activity

Loading chart...
Loading chart...

Standard ATC Positions

CallsignRadio Name / Freq / Voice Room / TypeFrequencyVoice RoomType
NZCH-S_CTR Christchurch Control
129.300
nzch-s_ctr
129.300nzch-s_ctr
UNICOM NZZC UNICOM
122.800
unicom_nzzc
122.800unicom_nzzc

Event ATC Positions

This airport has additional control positions that are designated for use only during major events.
These non-standard positions must not be staffed unless specifically activated by the VATNZ Airspace Director as part of an official VATNZ event.
At all other times, controllers should use the designated Standard ATC Positions.

CallsignRadio Name / Freq / Voice Room / TypeFrequencyVoice RoomType
NZCH-D_CTR Christchurch Control
129.200
nzch-d_ctr
129.200nzch-d_ctr
NZMF_TWR Milford Flight Service Station
118.200
nzmf_twr
118.200nzmf_twr

Charts